Year,Month,Day,Hour,Minute,Value (Times are PST for temperature in C)
2015,07,18,00,00,22.40
2015,07,18,00,01,22.40
2015,07,18,00,02,22.40
2015,07,18,00,03,22.40
2015,07,18,00,04,22.40
2015,07,18,00,05,22.40
2015,07,18,00,06,22.40
2015,07,18,00,07,22.40
2015,07,18,00,08,22.40
2015,07,18,00,09,22.40
2015,07,18,00,10,22.40
2015,07,18,00,11,22.40
2015,07,18,00,12,22.40
2015,07,18,00,13,22.40
2015,07,18,00,14,22.40
2015,07,18,00,15,22.30
2015,07,18,00,16,22.30
2015,07,18,00,17,22.30
2015,07,18,00,18,22.30
2015,07,18,00,19,22.30
2015,07,18,00,20,22.30
2015,07,18,00,21,22.30
2015,07,18,00,22,22.20
2015,07,18,00,23,22.20
2015,07,18,00,24,22.20
2015,07,18,00,25,22.20
2015,07,18,00,26,22.20
2015,07,18,00,27,22.20
2015,07,18,00,28,22.20
2015,07,18,00,29,22.20
2015,07,18,00,30,22.20
2015,07,18,00,31,22.20
2015,07,18,00,32,22.20
2015,07,18,00,33,22.10
2015,07,18,00,34,22.10
2015,07,18,00,35,22.10
2015,07,18,00,36,22.10
2015,07,18,00,37,22.10
2015,07,18,00,38,22.10
2015,07,18,00,39,22.10
2015,07,18,00,40,22.10
2015,07,18,00,41,22.10
2015,07,18,00,42,22.20
2015,07,18,00,43,22.20
2015,07,18,00,44,22.20
2015,07,18,00,45,22.20
2015,07,18,00,46,22.20
2015,07,18,00,47,22.20
2015,07,18,00,48,22.20
2015,07,18,00,49,22.20
2015,07,18,00,50,22.20
2015,07,18,00,51,22.30
2015,07,18,00,52,22.30
2015,07,18,00,53,22.30
2015,07,18,00,54,22.20
2015,07,18,00,55,22.20
2015,07,18,00,56,22.20
2015,07,18,00,57,22.20
2015,07,18,00,58,22.20
2015,07,18,00,59,22.10
2015,07,18,01,00,22.10
2015,07,18,01,01,22.10
2015,07,18,01,02,22.00
2015,07,18,01,03,22.00
2015,07,18,01,04,22.00
2015,07,18,01,05,21.90
2015,07,18,01,06,21.90
2015,07,18,01,07,21.80
2015,07,18,01,08,21.80
2015,07,18,01,09,21.80
2015,07,18,01,10,21.80
2015,07,18,01,11,21.70
2015,07,18,01,12,21.70
2015,07,18,01,13,21.70
2015,07,18,01,14,21.60
2015,07,18,01,15,21.60
2015,07,18,01,16,21.60
2015,07,18,01,17,21.60
2015,07,18,01,18,21.60
2015,07,18,01,19,21.60
2015,07,18,01,20,21.60
2015,07,18,01,21,21.50
2015,07,18,01,22,21.50
2015,07,18,01,23,21.50
2015,07,18,01,24,21.40
2015,07,18,01,25,21.40
2015,07,18,01,26,21.40
2015,07,18,01,27,21.40
2015,07,18,01,28,21.40
2015,07,18,01,29,21.40
2015,07,18,01,30,21.50
2015,07,18,01,31,21.50
2015,07,18,01,32,21.50
2015,07,18,01,33,21.50
2015,07,18,01,34,21.50
2015,07,18,01,35,21.50
2015,07,18,01,36,21.50
2015,07,18,01,37,21.50
2015,07,18,01,38,21.50
2015,07,18,01,39,21.50
2015,07,18,01,40,21.50
2015,07,18,01,41,21.50
2015,07,18,01,42,21.50
2015,07,18,01,43,21.50
2015,07,18,01,44,21.50
2015,07,18,01,45,21.40
2015,07,18,01,46,21.40
2015,07,18,01,47,21.40
2015,07,18,01,48,21.40
2015,07,18,01,49,21.40
2015,07,18,01,50,21.40
2015,07,18,01,51,21.40
2015,07,18,01,52,21.40
2015,07,18,01,53,21.50
2015,07,18,01,54,21.40
2015,07,18,01,55,21.40
2015,07,18,01,56,21.50
2015,07,18,01,57,21.50
2015,07,18,01,58,21.50
2015,07,18,01,59,21.50
2015,07,18,02,00,21.60
2015,07,18,02,01,21.60
2015,07,18,02,02,21.60
2015,07,18,02,03,21.60
2015,07,18,02,04,21.60
2015,07,18,02,05,21.50
2015,07,18,02,06,21.50
2015,07,18,02,07,21.50
2015,07,18,02,08,21.40
2015,07,18,02,09,21.40
2015,07,18,02,10,21.40
2015,07,18,02,11,21.30
2015,07,18,02,12,21.30
2015,07,18,02,13,21.30
2015,07,18,02,14,21.30
2015,07,18,02,15,21.30
2015,07,18,02,16,21.20
2015,07,18,02,17,21.20
2015,07,18,02,18,21.20
2015,07,18,02,19,21.20
2015,07,18,02,20,21.20
2015,07,18,02,21,21.20
2015,07,18,02,22,21.20
2015,07,18,02,23,21.20
2015,07,18,02,24,21.20
2015,07,18,02,25,21.10
2015,07,18,02,26,21.10
2015,07,18,02,27,21.20
2015,07,18,02,28,21.20
2015,07,18,02,29,21.20
2015,07,18,02,30,21.20
2015,07,18,02,31,21.20
2015,07,18,02,32,21.20
2015,07,18,02,33,21.20
2015,07,18,02,34,21.30
2015,07,18,02,35,21.30
2015,07,18,02,36,21.30
2015,07,18,02,37,21.30
2015,07,18,02,38,21.30
2015,07,18,02,39,21.30
2015,07,18,02,40,21.30
2015,07,18,02,41,21.20
2015,07,18,02,42,21.20
2015,07,18,02,43,21.20
2015,07,18,02,44,21.20
2015,07,18,02,45,21.20
2015,07,18,02,46,21.20
2015,07,18,02,47,21.20
2015,07,18,02,48,21.20
2015,07,18,02,49,21.20
2015,07,18,02,50,21.20
2015,07,18,02,51,21.30
2015,07,18,02,52,21.30
2015,07,18,02,53,21.30
2015,07,18,02,54,21.30
2015,07,18,02,55,21.20
2015,07,18,02,56,21.20
2015,07,18,02,57,21.20
2015,07,18,02,58,21.10
2015,07,18,02,59,21.10
2015,07,18,03,00,21.00
2015,07,18,03,01,20.80
2015,07,18,03,02,20.80
2015,07,18,03,03,20.70
2015,07,18,03,04,20.60
2015,07,18,03,05,20.60
2015,07,18,03,06,20.60
2015,07,18,03,07,20.70
2015,07,18,03,08,20.70
2015,07,18,03,09,20.80
2015,07,18,03,10,20.90
2015,07,18,03,11,21.00
2015,07,18,03,12,21.10
2015,07,18,03,13,21.10
2015,07,18,03,14,21.10
2015,07,18,03,15,21.10
2015,07,18,03,16,21.00
2015,07,18,03,17,21.00
2015,07,18,03,18,20.90
2015,07,18,03,19,20.90
2015,07,18,03,20,20.80
2015,07,18,03,21,20.80
2015,07,18,03,22,20.70
2015,07,18,03,23,20.60
2015,07,18,03,24,20.60
2015,07,18,03,25,20.50
2015,07,18,03,26,20.50
2015,07,18,03,27,20.50
2015,07,18,03,28,20.40
2015,07,18,03,29,20.40
2015,07,18,03,30,20.40
2015,07,18,03,31,20.40
2015,07,18,03,32,20.50
2015,07,18,03,33,20.50
2015,07,18,03,34,20.50
2015,07,18,03,35,20.40
2015,07,18,03,36,20.40
2015,07,18,03,37,20.30
2015,07,18,03,38,20.30
2015,07,18,03,39,20.20
2015,07,18,03,40,20.10
2015,07,18,03,41,20.00
2015,07,18,03,42,19.90
2015,07,18,03,43,19.90
2015,07,18,03,44,19.80
2015,07,18,03,45,19.80
2015,07,18,03,46,19.70
2015,07,18,03,47,19.70
2015,07,18,03,48,19.70
2015,07,18,03,49,19.70
2015,07,18,03,50,19.70
2015,07,18,03,51,19.70
2015,07,18,03,52,19.70
2015,07,18,03,53,19.70
2015,07,18,03,54,19.60
2015,07,18,03,55,19.60
2015,07,18,03,56,19.60
2015,07,18,03,57,19.60
2015,07,18,03,58,19.60
2015,07,18,03,59,19.60
2015,07,18,04,00,19.50
2015,07,18,04,01,19.50
2015,07,18,04,02,19.50
2015,07,18,04,03,19.50
2015,07,18,04,04,19.40
2015,07,18,04,05,19.40
2015,07,18,04,06,19.40
2015,07,18,04,07,19.40
2015,07,18,04,08,19.30
2015,07,18,04,09,19.30
2015,07,18,04,10,19.30
2015,07,18,04,11,19.30
2015,07,18,04,12,19.30
2015,07,18,04,13,19.20
2015,07,18,04,14,19.20
2015,07,18,04,15,19.20
2015,07,18,04,16,19.20
2015,07,18,04,17,19.10
2015,07,18,04,18,19.10
2015,07,18,04,19,19.10
2015,07,18,04,20,19.10
2015,07,18,04,21,19.10
2015,07,18,04,22,19.00
2015,07,18,04,23,19.00
2015,07,18,04,24,19.00
2015,07,18,04,25,19.00
2015,07,18,04,26,19.00
2015,07,18,04,27,19.00
2015,07,18,04,28,19.00
2015,07,18,04,29,18.90
2015,07,18,04,30,19.00
2015,07,18,04,31,19.00
2015,07,18,04,32,19.00
2015,07,18,04,33,19.10
2015,07,18,04,34,19.10
2015,07,18,04,35,19.20
2015,07,18,04,36,19.30
2015,07,18,04,37,19.30
2015,07,18,04,38,19.30
2015,07,18,04,39,19.30
2015,07,18,04,40,19.30
2015,07,18,04,41,19.30
2015,07,18,04,42,19.30
2015,07,18,04,43,19.30
2015,07,18,04,44,19.30
2015,07,18,04,45,19.30
2015,07,18,04,46,19.20
2015,07,18,04,47,19.20
2015,07,18,04,48,19.20
2015,07,18,04,49,19.20
2015,07,18,04,50,19.20
2015,07,18,04,51,19.10
2015,07,18,04,52,19.10
2015,07,18,04,53,19.10
2015,07,18,04,54,19.10
2015,07,18,04,55,19.10
2015,07,18,04,56,19.10
2015,07,18,04,57,19.10
2015,07,18,04,58,19.10
2015,07,18,04,59,19.10
2015,07,18,05,00,19.10
2015,07,18,05,01,19.10
2015,07,18,05,02,19.10
2015,07,18,05,03,19.10
2015,07,18,05,04,19.10
2015,07,18,05,05,19.10
2015,07,18,05,06,19.00
2015,07,18,05,07,19.00
2015,07,18,05,08,19.00
2015,07,18,05,09,18.90
2015,07,18,05,10,18.90
2015,07,18,05,11,18.90
2015,07,18,05,12,18.90
2015,07,18,05,13,18.90
2015,07,18,05,14,18.90
2015,07,18,05,15,18.90
2015,07,18,05,16,18.80
2015,07,18,05,17,18.80
2015,07,18,05,18,18.80
2015,07,18,05,19,18.80
2015,07,18,05,20,18.80
2015,07,18,05,21,18.80
2015,07,18,05,22,18.80
2015,07,18,05,23,18.80
2015,07,18,05,24,18.80
2015,07,18,05,25,18.80
2015,07,18,05,26,18.70
2015,07,18,05,27,18.70
2015,07,18,05,28,18.70
2015,07,18,05,29,18.70
2015,07,18,05,30,18.70
2015,07,18,05,31,18.70
2015,07,18,05,32,18.70
2015,07,18,05,33,18.70
2015,07,18,05,34,18.70
2015,07,18,05,35,18.70
2015,07,18,05,36,18.70
2015,07,18,05,37,18.70
2015,07,18,05,38,18.70
2015,07,18,05,39,18.70
2015,07,18,05,40,18.70
2015,07,18,05,41,18.70
2015,07,18,05,42,18.70
2015,07,18,05,43,18.70
2015,07,18,05,44,18.70
2015,07,18,05,45,18.70
2015,07,18,05,46,18.80
2015,07,18,05,47,18.80
2015,07,18,05,48,18.80
2015,07,18,05,49,18.80
2015,07,18,05,50,18.80
2015,07,18,05,51,18.80
2015,07,18,05,52,18.70
2015,07,18,05,53,18.70
2015,07,18,05,54,18.70
2015,07,18,05,55,18.70
2015,07,18,05,56,18.70
2015,07,18,05,57,18.70
2015,07,18,05,58,18.70
2015,07,18,05,59,18.80
2015,07,18,06,00,18.80
2015,07,18,06,01,18.80
2015,07,18,06,02,18.80
2015,07,18,06,03,18.80
2015,07,18,06,04,18.90
2015,07,18,06,05,18.90
2015,07,18,06,06,18.90
2015,07,18,06,07,18.90
2015,07,18,06,08,18.90
2015,07,18,06,09,19.00
2015,07,18,06,10,19.00
2015,07,18,06,11,19.00
2015,07,18,06,12,19.10
2015,07,18,06,13,19.10
2015,07,18,06,14,19.10
2015,07,18,06,15,19.10
2015,07,18,06,16,19.20
2015,07,18,06,17,19.20
2015,07,18,06,18,19.20
2015,07,18,06,19,19.20
2015,07,18,06,20,19.20
2015,07,18,06,21,19.30
2015,07,18,06,22,19.30
2015,07,18,06,23,19.30
2015,07,18,06,24,19.30
2015,07,18,06,25,19.30
2015,07,18,06,26,19.40
2015,07,18,06,27,19.40
2015,07,18,06,28,19.40
2015,07,18,06,29,19.40
2015,07,18,06,30,19.40
2015,07,18,06,31,19.40
2015,07,18,06,32,19.40
2015,07,18,06,33,19.40
2015,07,18,06,34,19.40
2015,07,18,06,35,19.40
2015,07,18,06,36,19.40
2015,07,18,06,37,19.40
2015,07,18,06,38,19.40
2015,07,18,06,39,19.40
2015,07,18,06,40,19.50
2015,07,18,06,41,19.50
2015,07,18,06,42,19.50
2015,07,18,06,43,19.50
2015,07,18,06,44,19.60
2015,07,18,06,45,19.60
2015,07,18,06,46,19.60
2015,07,18,06,47,19.60
2015,07,18,06,48,19.60
2015,07,18,06,49,19.60
2015,07,18,06,50,19.60
2015,07,18,06,51,19.60
2015,07,18,06,52,19.70
2015,07,18,06,53,19.70
2015,07,18,06,54,19.70
2015,07,18,06,55,19.70
2015,07,18,06,56,19.80
2015,07,18,06,57,19.80
2015,07,18,06,58,19.80
2015,07,18,06,59,19.80
2015,07,18,07,00,19.80
2015,07,18,07,01,19.80
2015,07,18,07,02,19.80
2015,07,18,07,03,19.80
2015,07,18,07,04,19.90
2015,07,18,07,05,19.90
2015,07,18,07,06,19.90
2015,07,18,07,07,19.90
2015,07,18,07,08,19.90
2015,07,18,07,09,20.00
2015,07,18,07,10,20.00
2015,07,18,07,11,20.00
2015,07,18,07,12,20.10
2015,07,18,07,13,20.10
2015,07,18,07,14,20.10
2015,07,18,07,15,20.10
2015,07,18,07,16,20.10
2015,07,18,07,17,20.10
2015,07,18,07,18,20.10
2015,07,18,07,19,20.10
2015,07,18,07,20,20.10
2015,07,18,07,21,20.20
2015,07,18,07,22,20.20
2015,07,18,07,23,20.20
2015,07,18,07,24,20.20
2015,07,18,07,25,20.30
2015,07,18,07,26,20.30
2015,07,18,07,27,20.30
2015,07,18,07,28,20.40
2015,07,18,07,29,20.40
2015,07,18,07,30,20.40
2015,07,18,07,31,20.50
2015,07,18,07,32,20.40
2015,07,18,07,33,20.50
2015,07,18,07,34,20.50
2015,07,18,07,35,20.50
2015,07,18,07,36,20.50
2015,07,18,07,37,20.60
2015,07,18,07,38,20.60
2015,07,18,07,39,20.60
2015,07,18,07,40,20.60
2015,07,18,07,41,20.60
2015,07,18,07,42,20.60
2015,07,18,07,43,20.60
2015,07,18,07,44,20.60
2015,07,18,07,45,20.60
2015,07,18,07,46,20.60
2015,07,18,07,47,20.60
2015,07,18,07,48,20.60
2015,07,18,07,49,20.60
2015,07,18,07,50,20.60
2015,07,18,07,51,20.60
2015,07,18,07,52,20.60
2015,07,18,07,53,20.70
2015,07,18,07,54,20.70
2015,07,18,07,55,20.80
2015,07,18,07,56,20.90
2015,07,18,07,57,20.90
2015,07,18,07,58,20.90
2015,07,18,07,59,21.00
2015,07,18,08,00,21.00
2015,07,18,08,01,21.00
2015,07,18,08,02,21.00
2015,07,18,08,03,21.00
2015,07,18,08,04,21.00
2015,07,18,08,05,21.00
2015,07,18,08,06,21.10
2015,07,18,08,07,21.10
2015,07,18,08,08,21.10
2015,07,18,08,09,21.10
2015,07,18,08,10,21.10
2015,07,18,08,11,21.10
2015,07,18,08,12,21.20
2015,07,18,08,13,21.10
2015,07,18,08,14,21.20
2015,07,18,08,15,21.20
2015,07,18,08,16,21.20
2015,07,18,08,17,21.20
2015,07,18,08,18,21.30
2015,07,18,08,19,21.40
2015,07,18,08,20,21.40
2015,07,18,08,21,21.40
2015,07,18,08,22,21.40
2015,07,18,08,23,21.40
2015,07,18,08,24,21.40
2015,07,18,08,25,21.40
2015,07,18,08,26,21.40
2015,07,18,08,27,21.40
2015,07,18,08,28,21.40
2015,07,18,08,29,21.40
2015,07,18,08,30,21.40
2015,07,18,08,31,21.40
2015,07,18,08,32,21.50
2015,07,18,08,33,21.50
2015,07,18,08,34,21.50
2015,07,18,08,35,21.50
2015,07,18,08,36,21.30
2015,07,18,08,37,21.20
2015,07,18,08,38,21.10
2015,07,18,08,39,21.00
2015,07,18,08,40,21.00
2015,07,18,08,41,21.00
2015,07,18,08,42,21.10
2015,07,18,08,43,21.20
2015,07,18,08,44,21.30
2015,07,18,08,45,21.40
2015,07,18,08,46,21.40
2015,07,18,08,47,21.40
2015,07,18,08,48,21.40
2015,07,18,08,49,21.50
2015,07,18,08,50,21.50
2015,07,18,08,51,21.60
2015,07,18,08,52,21.60
2015,07,18,08,53,21.60
2015,07,18,08,54,21.60
2015,07,18,08,55,21.60
2015,07,18,08,56,21.60
2015,07,18,08,57,21.60
2015,07,18,08,58,21.50
2015,07,18,08,59,21.40
2015,07,18,09,00,21.40
2015,07,18,09,01,21.40
2015,07,18,09,02,21.30
2015,07,18,09,03,21.10
2015,07,18,09,04,21.00
2015,07,18,09,05,20.90
2015,07,18,09,06,20.80
2015,07,18,09,07,20.70
2015,07,18,09,08,20.80
2015,07,18,09,09,20.80
2015,07,18,09,10,20.80
2015,07,18,09,11,20.90
2015,07,18,09,12,21.00
2015,07,18,09,13,21.10
2015,07,18,09,14,21.20
2015,07,18,09,15,21.20
2015,07,18,09,16,21.30
2015,07,18,09,17,21.30
2015,07,18,09,18,21.30
2015,07,18,09,19,21.20
2015,07,18,09,20,21.10
2015,07,18,09,21,21.10
2015,07,18,09,22,21.00
2015,07,18,09,23,20.90
2015,07,18,09,24,20.90
2015,07,18,09,25,20.90
2015,07,18,09,26,20.80
2015,07,18,09,27,20.80
2015,07,18,09,28,20.80
2015,07,18,09,29,20.80
2015,07,18,09,30,20.90
2015,07,18,09,31,20.90
2015,07,18,09,32,20.90
2015,07,18,09,33,21.00
2015,07,18,09,34,21.00
2015,07,18,09,35,21.10
2015,07,18,09,36,21.10
2015,07,18,09,37,21.10
2015,07,18,09,38,21.10
2015,07,18,09,39,21.10
2015,07,18,09,40,21.10
2015,07,18,09,41,21.20
2015,07,18,09,42,21.30
2015,07,18,09,43,21.40
2015,07,18,09,44,21.50
2015,07,18,09,45,21.50
2015,07,18,09,46,21.50
2015,07,18,09,47,21.50
2015,07,18,09,48,21.50
2015,07,18,09,49,21.50
2015,07,18,09,50,21.40
2015,07,18,09,51,21.40
2015,07,18,09,52,21.40
2015,07,18,09,53,21.40
2015,07,18,09,54,21.40
2015,07,18,09,55,21.40
2015,07,18,09,56,21.40
2015,07,18,09,57,21.40
2015,07,18,09,58,21.40
2015,07,18,09,59,21.40
2015,07,18,10,00,21.40
2015,07,18,10,01,21.40
2015,07,18,10,02,21.40
2015,07,18,10,03,21.50
2015,07,18,10,04,21.60
2015,07,18,10,05,21.60
2015,07,18,10,06,21.60
2015,07,18,10,07,21.50
2015,07,18,10,08,21.40
2015,07,18,10,09,21.40
2015,07,18,10,10,21.30
2015,07,18,10,11,21.30
2015,07,18,10,12,21.30
2015,07,18,10,13,21.30
2015,07,18,10,14,21.40
2015,07,18,10,15,21.30
2015,07,18,10,16,21.40
2015,07,18,10,17,21.40
2015,07,18,10,18,21.40
2015,07,18,10,19,21.30
2015,07,18,10,20,21.20
2015,07,18,10,21,21.20
2015,07,18,10,22,21.10
2015,07,18,10,23,21.10
2015,07,18,10,24,21.20
2015,07,18,10,25,21.30
2015,07,18,10,26,21.30
2015,07,18,10,27,21.30
2015,07,18,10,28,21.30
2015,07,18,10,29,21.40
2015,07,18,10,30,21.50
2015,07,18,10,31,21.50
2015,07,18,10,32,21.50
2015,07,18,10,33,21.50
2015,07,18,10,34,21.50
2015,07,18,10,35,21.50
2015,07,18,10,36,21.60
2015,07,18,10,37,21.60
2015,07,18,10,38,21.70
2015,07,18,10,39,21.70
2015,07,18,10,40,21.70
2015,07,18,10,41,21.70
2015,07,18,10,42,21.60
2015,07,18,10,43,21.70
2015,07,18,10,44,21.70
2015,07,18,10,45,21.60
2015,07,18,10,46,21.60
2015,07,18,10,47,21.60
2015,07,18,10,48,21.60
2015,07,18,10,49,21.50
2015,07,18,10,50,21.40
2015,07,18,10,51,21.40
2015,07,18,10,52,21.40
2015,07,18,10,53,21.40
2015,07,18,10,54,21.40
2015,07,18,10,55,21.40
2015,07,18,10,56,21.30
2015,07,18,10,57,21.30
2015,07,18,10,58,21.30
2015,07,18,10,59,21.30
2015,07,18,11,00,21.40
2015,07,18,11,01,21.40
2015,07,18,11,02,21.40
2015,07,18,11,03,21.40
2015,07,18,11,04,21.40
2015,07,18,11,05,21.30
2015,07,18,11,06,21.20
2015,07,18,11,07,21.10
2015,07,18,11,08,21.00
2015,07,18,11,09,20.80
2015,07,18,11,10,20.80
2015,07,18,11,11,20.80
2015,07,18,11,12,20.70
2015,07,18,11,13,20.80
2015,07,18,11,14,20.80
2015,07,18,11,15,20.80
2015,07,18,11,16,20.90
2015,07,18,11,17,21.00
2015,07,18,11,18,21.10
2015,07,18,11,19,21.10
2015,07,18,11,20,21.10
2015,07,18,11,21,21.10
2015,07,18,11,22,21.20
2015,07,18,11,23,21.30
2015,07,18,11,24,21.50
2015,07,18,11,25,21.60
2015,07,18,11,26,21.50
2015,07,18,11,27,21.40
2015,07,18,11,28,21.20
2015,07,18,11,29,21.10
2015,07,18,11,30,21.00
2015,07,18,11,31,20.80
2015,07,18,11,32,20.80
2015,07,18,11,33,20.80
2015,07,18,11,34,20.80
2015,07,18,11,35,20.80
2015,07,18,11,36,20.80
2015,07,18,11,37,20.80
2015,07,18,11,38,20.80
2015,07,18,11,39,20.70
2015,07,18,11,40,20.80
2015,07,18,11,41,20.80
2015,07,18,11,42,20.90
2015,07,18,11,43,21.00
2015,07,18,11,44,21.10
2015,07,18,11,45,21.20
2015,07,18,11,46,21.20
2015,07,18,11,47,21.20
2015,07,18,11,48,21.10
2015,07,18,11,49,21.00
2015,07,18,11,50,21.00
2015,07,18,11,51,21.10
2015,07,18,11,52,21.10
2015,07,18,11,53,21.10
2015,07,18,11,54,21.00
2015,07,18,11,55,20.90
2015,07,18,11,56,20.90
2015,07,18,11,57,20.90
2015,07,18,11,58,21.00
2015,07,18,11,59,21.10
2015,07,18,12,00,21.20
2015,07,18,12,01,21.30
2015,07,18,12,02,21.40
2015,07,18,12,03,21.50
2015,07,18,12,04,21.60
2015,07,18,12,05,21.60
2015,07,18,12,06,21.70
2015,07,18,12,07,21.80
2015,07,18,12,08,21.80
2015,07,18,12,09,21.80
2015,07,18,12,10,21.80
2015,07,18,12,11,21.80
2015,07,18,12,12,21.70
2015,07,18,12,13,21.70
2015,07,18,12,14,21.70
2015,07,18,12,15,21.80
2015,07,18,12,16,21.90
2015,07,18,12,17,22.00
2015,07,18,12,18,22.00
2015,07,18,12,19,22.10
2015,07,18,12,20,22.20
2015,07,18,12,21,22.30
2015,07,18,12,22,22.40
2015,07,18,12,23,22.40
2015,07,18,12,24,22.40
2015,07,18,12,25,22.30
2015,07,18,12,26,22.30
2015,07,18,12,27,22.30
2015,07,18,12,28,22.30
2015,07,18,12,29,22.30
2015,07,18,12,30,22.30
2015,07,18,12,31,22.30
2015,07,18,12,32,22.30
2015,07,18,12,33,22.30
2015,07,18,12,34,22.30
2015,07,18,12,35,22.20
2015,07,18,12,36,22.10
2015,07,18,12,37,22.10
2015,07,18,12,38,22.10
2015,07,18,12,39,22.00
2015,07,18,12,40,22.00
2015,07,18,12,41,21.90
2015,07,18,12,42,21.90
2015,07,18,12,43,21.90
2015,07,18,12,44,22.00
2015,07,18,12,45,21.90
2015,07,18,12,46,22.00
2015,07,18,12,47,21.90
2015,07,18,12,48,21.90
2015,07,18,12,49,21.90
2015,07,18,12,50,21.90
2015,07,18,12,51,21.80
2015,07,18,12,52,21.90
2015,07,18,12,53,22.00
2015,07,18,12,54,22.10
2015,07,18,12,55,22.20
2015,07,18,12,56,22.30
2015,07,18,12,57,22.30
2015,07,18,12,58,22.40
2015,07,18,12,59,22.50
2015,07,18,13,00,22.70
2015,07,18,13,01,22.80
2015,07,18,13,02,22.80
2015,07,18,13,03,22.80
2015,07,18,13,04,22.80
2015,07,18,13,05,22.80
2015,07,18,13,06,22.70
2015,07,18,13,07,22.80
2015,07,18,13,08,22.70
2015,07,18,13,09,22.70
2015,07,18,13,10,22.80
2015,07,18,13,11,22.80
2015,07,18,13,12,22.90
2015,07,18,13,13,22.90
2015,07,18,13,14,23.00
2015,07,18,13,15,23.00
2015,07,18,13,16,23.00
2015,07,18,13,17,23.10
2015,07,18,13,18,23.10
2015,07,18,13,19,23.10
2015,07,18,13,20,23.00
2015,07,18,13,21,23.00
2015,07,18,13,22,23.00
2015,07,18,13,23,23.00
2015,07,18,13,24,23.00
2015,07,18,13,25,23.00
2015,07,18,13,26,23.10
2015,07,18,13,27,23.00
2015,07,18,13,28,23.00
2015,07,18,13,29,23.00
2015,07,18,13,30,23.10
2015,07,18,13,31,23.10
2015,07,18,13,32,23.20
2015,07,18,13,33,23.20
2015,07,18,13,34,23.10
2015,07,18,13,35,23.10
2015,07,18,13,36,23.00
2015,07,18,13,37,22.90
2015,07,18,13,38,22.90
2015,07,18,13,39,22.90
2015,07,18,13,40,23.00
2015,07,18,13,41,23.00
2015,07,18,13,42,23.10
2015,07,18,13,43,23.10
2015,07,18,13,44,23.20
2015,07,18,13,45,23.30
2015,07,18,13,46,23.30
2015,07,18,13,47,23.30
2015,07,18,13,48,23.20
2015,07,18,13,49,23.20
2015,07,18,13,50,23.20
2015,07,18,13,51,23.30
2015,07,18,13,52,23.30
2015,07,18,13,53,23.40
2015,07,18,13,54,23.40
2015,07,18,13,55,23.50
2015,07,18,13,56,23.60
2015,07,18,13,57,23.70
2015,07,18,13,58,23.70
2015,07,18,13,59,23.80
2015,07,18,14,00,23.80
2015,07,18,14,01,23.80
2015,07,18,14,02,23.90
2015,07,18,14,03,24.00
2015,07,18,14,04,24.00
2015,07,18,14,05,24.10
2015,07,18,14,06,24.10
2015,07,18,14,07,24.20
2015,07,18,14,08,24.30
2015,07,18,14,09,24.40
2015,07,18,14,10,24.40
2015,07,18,14,11,24.40
2015,07,18,14,12,24.40
2015,07,18,14,13,24.40
2015,07,18,14,14,24.40
2015,07,18,14,15,24.40
2015,07,18,14,16,24.40
2015,07,18,14,17,24.40
2015,07,18,14,18,24.40
2015,07,18,14,19,24.40
2015,07,18,14,20,24.40
2015,07,18,14,21,24.40
2015,07,18,14,22,24.40
2015,07,18,14,23,24.50
2015,07,18,14,24,24.60
2015,07,18,14,25,24.80
2015,07,18,14,26,25.00
2015,07,18,14,27,25.10
2015,07,18,14,28,25.20
2015,07,18,14,29,25.20
2015,07,18,14,30,25.20
2015,07,18,14,31,25.20
2015,07,18,14,32,25.10
2015,07,18,14,33,25.10
2015,07,18,14,34,25.10
2015,07,18,14,35,25.20
2015,07,18,14,36,25.20
2015,07,18,14,37,25.20
2015,07,18,14,38,25.30
2015,07,18,14,39,25.30
2015,07,18,14,40,25.30
2015,07,18,14,41,25.30
2015,07,18,14,42,25.20
2015,07,18,14,43,25.20
2015,07,18,14,44,25.10
2015,07,18,14,45,25.00
2015,07,18,14,46,24.90
2015,07,18,14,47,24.90
2015,07,18,14,48,25.00
2015,07,18,14,49,25.00
2015,07,18,14,50,25.10
2015,07,18,14,51,25.10
2015,07,18,14,52,25.10
2015,07,18,14,53,25.10
2015,07,18,14,54,25.10
2015,07,18,14,55,25.10
2015,07,18,14,56,25.20
2015,07,18,14,57,25.20
2015,07,18,14,58,25.10
2015,07,18,14,59,25.10
2015,07,18,15,00,25.00
2015,07,18,15,01,25.00
2015,07,18,15,02,25.00
2015,07,18,15,03,25.20
2015,07,18,15,04,25.30
2015,07,18,15,05,25.50
2015,07,18,15,06,25.70
2015,07,18,15,07,25.70
2015,07,18,15,08,25.80
2015,07,18,15,09,25.80
2015,07,18,15,10,25.80
2015,07,18,15,11,25.80
2015,07,18,15,12,25.70
2015,07,18,15,13,25.60
2015,07,18,15,14,25.50
2015,07,18,15,15,25.40
2015,07,18,15,16,25.30
2015,07,18,15,17,25.20
2015,07,18,15,18,25.20
2015,07,18,15,19,25.10
2015,07,18,15,20,25.00
2015,07,18,15,21,25.00
2015,07,18,15,22,24.90
2015,07,18,15,23,24.90
2015,07,18,15,24,24.90
2015,07,18,15,25,24.90
2015,07,18,15,26,24.90
2015,07,18,15,27,24.90
2015,07,18,15,28,24.90
2015,07,18,15,29,24.90
2015,07,18,15,30,24.90
2015,07,18,15,31,24.90
2015,07,18,15,32,25.00
2015,07,18,15,33,25.10
2015,07,18,15,34,25.20
2015,07,18,15,35,25.30
2015,07,18,15,36,25.30
2015,07,18,15,37,25.30
2015,07,18,15,38,25.30
2015,07,18,15,39,25.30
2015,07,18,15,40,25.20
2015,07,18,15,41,25.10
2015,07,18,15,42,25.10
2015,07,18,15,43,25.20
2015,07,18,15,44,25.20
2015,07,18,15,45,25.20
2015,07,18,15,46,25.10
2015,07,18,15,47,25.10
2015,07,18,15,48,25.10
2015,07,18,15,49,25.10
2015,07,18,15,50,25.30
2015,07,18,15,51,25.30
2015,07,18,15,52,25.40
2015,07,18,15,53,25.40
2015,07,18,15,54,25.50
2015,07,18,15,55,25.60
2015,07,18,15,56,25.60
2015,07,18,15,57,25.80
2015,07,18,15,58,25.80
2015,07,18,15,59,25.80
2015,07,18,16,00,25.80
2015,07,18,16,01,25.80
2015,07,18,16,02,25.90
2015,07,18,16,03,25.90
2015,07,18,16,04,25.90
2015,07,18,16,05,25.90
2015,07,18,16,06,25.90
2015,07,18,16,07,25.90
2015,07,18,16,08,25.90
2015,07,18,16,09,25.90
2015,07,18,16,10,25.90
2015,07,18,16,11,26.00
2015,07,18,16,12,26.00
2015,07,18,16,13,26.10
2015,07,18,16,14,26.10
2015,07,18,16,15,26.10
2015,07,18,16,16,26.10
2015,07,18,16,17,26.20
2015,07,18,16,18,26.30
2015,07,18,16,19,26.30
2015,07,18,16,20,26.40
2015,07,18,16,21,26.60
2015,07,18,16,22,26.70
2015,07,18,16,23,26.80
2015,07,18,16,24,26.80
2015,07,18,16,25,27.00
2015,07,18,16,26,27.10
2015,07,18,16,27,27.20
2015,07,18,16,28,27.30
2015,07,18,16,29,27.40
2015,07,18,16,30,27.40
2015,07,18,16,31,27.50
2015,07,18,16,32,27.60
2015,07,18,16,33,27.60
2015,07,18,16,34,27.70
2015,07,18,16,35,27.70
2015,07,18,16,36,27.80
2015,07,18,16,37,27.80
2015,07,18,16,38,27.80
2015,07,18,16,39,27.80
2015,07,18,16,40,27.70
2015,07,18,16,41,27.60
2015,07,18,16,42,27.50
2015,07,18,16,43,27.40
2015,07,18,16,44,27.30
2015,07,18,16,45,27.20
2015,07,18,16,46,27.10
2015,07,18,16,47,27.10
2015,07,18,16,48,27.00
2015,07,18,16,49,27.00
2015,07,18,16,50,26.90
2015,07,18,16,51,27.00
2015,07,18,16,52,27.00
2015,07,18,16,53,27.10
2015,07,18,16,54,27.20
2015,07,18,16,55,27.30
2015,07,18,16,56,27.40
2015,07,18,16,57,27.40
2015,07,18,16,58,27.40
2015,07,18,16,59,27.40
2015,07,18,17,00,27.50
2015,07,18,17,01,27.60
2015,07,18,17,02,27.70
2015,07,18,17,03,27.60
2015,07,18,17,04,27.60
2015,07,18,17,05,27.60
2015,07,18,17,06,27.60
2015,07,18,17,07,27.70
2015,07,18,17,08,27.60
2015,07,18,17,09,27.60
2015,07,18,17,10,27.60
2015,07,18,17,11,27.50
2015,07,18,17,12,27.50
2015,07,18,17,13,27.60
2015,07,18,17,14,27.60
2015,07,18,17,15,27.60
2015,07,18,17,16,27.70
2015,07,18,17,17,27.70
2015,07,18,17,18,27.80
2015,07,18,17,19,27.70